Date String (YYYY-MM-DD hh:mm:ss) UTC,Instrument flags,Ambient pressure (hPa),Sample flow (lpm),Bypass flow (lpm),Sample temperature (°C),Ambient temperature (°C),ASC tube jacket temperature (°C),LED temperature (°C),Box temperature (°C),Sample RH (%),Mass concentration (μg/m³),Mass concentration (μg/m³)
DateTimeUTC,F1_M11,P_M11,Q1_M11,Q2_M11,T1_M11,T2_M11,T3_M11,T4_M11,T5_M11,U1_M11,X2_M11,X0_M11
2021-08-16 06:00:00,,0829.3,5.00,0.00,29.5,28.6,00.0,38.4,31.4,21.3,0010.07,0014.30
2021-08-16 06:01:00,,0829.3,5.01,0.00,29.6,28.7,00.0,38.5,31.4,21.2,0010.04,0014.30
2021-08-16 06:02:00,,0829.4,5.01,0.00,29.6,28.8,00.0,38.5,31.5,21.1,0010.01,0014.00
2021-08-16 06:03:00,,0829.4,4.99,0.00,29.6,28.8,00.0,38.5,31.5,21.1,0009.97,0013.84
2021-08-16 06:04:00,,0829.5,5.01,0.00,29.7,28.2,00.0,38.5,31.3,21.1,0009.98,0013.85
2021-08-16 06:05:00,,0829.5,4.98,0.00,29.5,26.4,00.0,38.5,30.8,21.1,0010.03,0013.96
2021-08-16 06:06:00,,0829.5,5.01,0.00,29.4,26.1,00.0,38.5,30.8,21.3,0010.07,0013.91
2021-08-16 06:07:00,,0829.5,5.01,0.00,29.3,26.4,00.0,38.5,30.8,21.4,0010.08,0013.92
2021-08-16 06:08:00,,0829.5,4.98,0.00,29.3,26.8,00.0,38.5,30.9,21.6,0010.04,0013.78
2021-08-16 06:09:00,,0829.5,5.00,0.00,29.3,27.2,00.0,38.4,31.0,21.5,0010.04,0013.42
2021-08-16 06:10:00,,0829.5,5.01,0.00,29.3,27.5,00.0,38.4,31.0,21.5,0010.04,0013.45
2021-08-16 06:11:00,,0829.5,5.00,0.00,29.3,27.8,00.0,38.4,31.1,22.5,0010.04,0013.50
2021-08-16 06:12:00,,0829.5,5.00,0.00,29.3,28.0,00.0,38.4,31.1,22.5,0010.03,0013.42
2021-08-16 06:13:00,,0829.4,5.00,0.00,29.4,28.1,00.0,38.4,31.2,22.4,0009.97,0013.13
2021-08-16 06:14:00,,0829.4,4.99,0.00,29.4,28.3,00.0,38.4,31.3,22.7,0009.97,0013.67
2021-08-16 06:15:00,,0829.4,5.01,0.00,29.4,28.4,00.0,38.4,31.3,22.4,0009.98,0013.98
2021-08-16 06:16:00,,0829.5,5.00,0.00,29.5,28.5,00.0,38.5,31.3,22.3,0009.97,0014.00
2021-08-16 06:17:00,,0829.5,4.98,0.00,29.5,28.6,00.0,38.5,31.4,22.3,0009.98,0014.14
2021-08-16 06:18:00,,0829.5,4.99,0.00,29.6,28.7,00.0,38.5,31.4,22.5,0009.98,0014.56
2021-08-16 06:19:00,,0829.5,5.01,0.00,29.6,28.7,00.0,38.5,31.5,22.9,0010.01,0014.64
2021-08-16 06:20:00,,0829.5,4.99,0.00,29.6,28.8,00.0,38.6,31.5,22.9,0010.06,0014.77
2021-08-16 06:21:00,,0829.5,5.00,0.00,29.7,28.9,00.0,38.6,31.5,23.0,0010.06,0014.79
2021-08-16 06:22:00,,0829.5,5.01,0.00,29.7,28.9,00.0,38.6,31.6,23.0,0010.06,0014.69
2021-08-16 06:23:00,,0829.5,5.00,0.00,29.7,27.6,00.0,38.6,31.2,23.3,0010.11,0014.81
2021-08-16 06:24:00,,0829.5,5.00,0.00,29.5,26.2,00.0,38.6,30.9,24.4,0010.24,0015.02
2021-08-16 06:25:00,,0829.5,4.99,0.00,29.4,26.3,00.0,38.6,30.8,24.7,0010.31,0014.62
2021-08-16 06:26:00,,0829.5,5.01,0.00,29.4,26.6,00.0,38.5,30.9,24.6,0010.38,0014.75
2021-08-16 06:27:00,,0829.5,5.00,0.00,29.3,27.0,00.0,38.5,31.0,24.6,0010.43,0015.02
2021-08-16 06:28:00,,0829.5,4.99,0.00,29.3,27.3,00.0,38.5,31.0,24.9,0010.48,0015.34
2021-08-16 06:29:00,,0829.5,5.01,0.00,29.4,27.6,00.0,38.5,31.1,25.4,0010.54,0014.99
2021-08-16 06:30:00,,0829.5,5.00,0.00,29.4,27.9,00.0,38.5,31.1,25.5,0010.65,0015.10
2021-08-16 06:31:00,,0829.5,4.99,0.00,29.4,28.1,00.0,38.5,31.2,25.8,0010.74,0015.84
2021-08-16 06:32:00,,0829.5,5.00,0.00,29.5,28.2,00.0,38.5,31.3,26.0,0010.81,0016.29
2021-08-16 06:33:00,,0829.5,5.00,0.00,29.5,28.3,00.0,38.5,31.3,26.0,0010.93,0016.90
2021-08-16 06:34:00,,0829.5,4.99,0.00,29.5,28.5,00.0,38.5,31.4,26.3,0011.04,0017.20
2021-08-16 06:35:00,,0829.5,4.99,0.00,29.6,28.5,00.0,38.5,31.4,26.5,0011.09,0017.36
2021-08-16 06:36:00,,0829.5,5.01,0.00,29.6,28.6,00.0,38.6,31.5,26.1,0011.16,0018.04
2021-08-16 06:37:00,,0829.5,5.00,0.00,29.6,28.7,00.0,38.6,31.5,26.1,0011.18,0019.02
2021-08-16 06:38:00,,0829.5,5.00,0.00,29.7,28.8,00.0,38.6,31.5,26.3,0011.22,0019.48
2021-08-16 06:39:00,,0829.4,5.00,0.00,29.7,28.8,00.0,38.6,31.6,26.1,0011.26,0019.44
2021-08-16 06:40:00,,0829.4,4.99,0.00,29.7,28.6,00.0,38.7,31.5,25.9,0011.37,0020.52
2021-08-16 06:41:00,,0829.4,5.01,0.00,29.6,26.9,00.0,38.6,31.1,25.9,0011.40,0021.40
2021-08-16 06:42:00,,0829.3,5.00,0.00,29.5,26.2,00.0,38.6,30.9,25.9,0011.36,0020.98
2021-08-16 06:43:00,,0829.4,4.99,0.00,29.4,26.4,00.0,38.6,30.9,25.8,0011.40,0020.90
2021-08-16 06:44:00,,0829.3,5.00,0.00,29.4,26.8,00.0,38.6,31.0,25.7,0011.39,0020.45
2021-08-16 06:45:00,,0829.5,4.99,0.00,29.4,27.2,00.0,38.5,31.0,25.6,0011.40,0020.68
2021-08-16 06:46:00,,0829.3,5.00,0.00,29.4,27.5,00.0,38.5,31.1,25.3,0011.39,0021.86
2021-08-16 06:47:00,,0829.3,5.01,0.00,29.4,27.7,00.0,38.5,31.1,25.0,0011.36,0022.43
2021-08-16 06:48:00,,0829.4,5.00,0.00,29.4,27.9,00.0,38.5,31.2,24.7,0011.32,0021.29
2021-08-16 06:49:00,,0829.3,4.99,0.00,29.4,28.1,00.0,38.5,31.2,24.5,0011.29,0021.86
2021-08-16 06:50:00,,0829.3,5.01,0.00,29.5,28.2,00.0,38.5,31.3,24.4,0011.26,0022.25
2021-08-16 06:51:00,,0829.2,5.00,0.00,29.5,28.3,00.0,38.5,31.3,24.1,0011.15,0021.29
2021-08-16 06:52:00,,0829.3,4.99,0.00,29.5,28.4,00.0,38.5,31.3,23.5,0011.12,0020.92
2021-08-16 06:53:00,,0829.3,5.00,0.00,29.5,28.5,00.0,38.6,31.4,23.4,0011.15,0022.12
2021-08-16 06:54:00,,0829.3,5.01,0.00,29.6,28.6,00.0,38.6,31.4,23.4,0011.19,0022.42
2021-08-16 06:55:00,,0829.2,4.99,0.00,29.6,28.6,00.0,38.6,31.5,23.3,0011.26,0023.19
2021-08-16 06:56:00,,0829.2,5.02,0.00,29.6,28.7,00.0,38.6,31.5,23.2,0011.22,0023.21
2021-08-16 06:57:00,,0829.2,4.99,0.00,29.7,28.7,00.0,38.6,31.5,23.1,0011.15,0022.74
2021-08-16 06:58:00,,0829.3,5.02,0.00,29.7,28.8,00.0,38.7,31.5,23.1,0011.12,0021.78
2021-08-16 06:59:00,,0829.2,4.99,0.00,29.7,28.0,00.0,38.7,31.3,23.0,0011.15,0021.79
